• In Deutschland
  • Länderverzeichnis
  • Für 7 Tage
  • Wassertemperatur
  • Satellitenkarten
  • Wetterkarte
  • Widgets
  • user-avatar
    Anmelden

    Stündliche Wetter Nordhausen

    Heute, 15 August, Mittwoch

    Zeit Temperatur Niederschläge Wind Luftdruck Luftfeuchtigkeit
    00:00 +15°C° 0 mm 2 m/S 741 mmHg 87%
    01:00 +15°C° 0 mm 2 m/S 742 mmHg 91%
    02:00 +14°C° 0 mm 2 m/S 742 mmHg 92%
    03:00 +14°C° 0 mm 2 m/S 742 mmHg 92%
    04:00 +14°C° 0 mm 2 m/S 742 mmHg 93%
    05:00 +15°C° 0 mm 2 m/S 742 mmHg 89%
    06:00 +16°C° 0 mm 2 m/S 743 mmHg 85%
    07:00 +17°C° 0 mm 2 m/S 743 mmHg 81%
    08:00 +19°C° 0,1 mm 2 m/S 743 mmHg 75%
    09:00 +20°C° 0,1 mm 3 m/S 743 mmHg 68%
    10:00 +21°C° 0,1 mm 3 m/S 743 mmHg 61%
    11:00 +22°C° 0 mm 3 m/S 743 mmHg 58%
    12:00 +22°C° 0 mm 3 m/S 743 mmHg 55%
    13:00 +24°C° 0 mm 3 m/S 743 mmHg 52%
    14:00 +24°C° 0 mm 3 m/S 743 mmHg 52%
    15:00 +24°C° 0 mm 3 m/S 743 mmHg 52%
    16:00 +25°C° 0 mm 2 m/S 743 mmHg 52%
    17:00 +24°C° 0 mm 2 m/S 743 mmHg 56%
    18:00 +23°C° 0 mm 1 m/S 743 mmHg 61%
    19:00 +22°C° 0 mm 1 m/S 743 mmHg 65%
    20:00 +21°C° 0 mm 1 m/S 743 mmHg 70%
    21:00 +19°C° 0 mm 1 m/S 743 mmHg 74%
    22:00 +18°C° 0 mm 1 m/S 743 mmHg 78%
    23:00 +18°C° 0 mm 1 m/S 743 mmHg 79%

    Morgen, 16 August, Donnerstag

    Zeit Temperatur Niederschläge Wind Luftdruck Luftfeuchtigkeit
    00:00 +16°C° 0 mm 1 m/S 743 mmHg 81%
    01:00 +16°C° 0 mm 1 m/S 743 mmHg 82%
    02:00 +16°C° 0 mm 1 m/S 743 mmHg 84%
    03:00 +16°C° 0 mm 1 m/S 743 mmHg 85%
    04:00 +15°C° 0 mm 1 m/S 743 mmHg 86%
    05:00 +16°C° 0 mm 1 m/S 743 mmHg 82%
    06:00 +18°C° 0 mm 1 m/S 743 mmHg 78%
    07:00 +19°C° 0 mm 1 m/S 743 mmHg 75%
    08:00 +21°C° 0 mm 1 m/S 743 mmHg 68%
    09:00 +23°C° 0 mm 2 m/S 743 mmHg 61%
    10:00 +25°C° 0 mm 2 m/S 743 mmHg 54%
    11:00 +26°C° 0 mm 2 m/S 742 mmHg 51%
    12:00 +27°C° 0 mm 2 m/S 742 mmHg 47%
    13:00 +28°C° 0 mm 2 m/S 741 mmHg 44%
    14:00 +29°C° 0 mm 2 m/S 741 mmHg 43%
    15:00 +29°C° 0 mm 2 m/S 741 mmHg 42%
    16:00 +29°C° 0 mm 2 m/S 740 mmHg 41%
    17:00 +28°C° 0 mm 2 m/S 740 mmHg 46%
    18:00 +27°C° 0 mm 1 m/S 740 mmHg 51%
    19:00 +25°C° 0 mm 1 m/S 740 mmHg 56%
    20:00 +24°C° 0 mm 1 m/S 740 mmHg 59%
    21:00 +23°C° 0 mm 1 m/S 740 mmHg 62%
    22:00 +22°C° 0 mm 1 m/S 740 mmHg 65%
    23:00 +21°C° 0 mm 1 m/S 740 mmHg 66%

    übermorgen, 17 August, Freitag

    Zeit Temperatur Niederschläge Wind Luftdruck Luftfeuchtigkeit
    00:00 +21°C° 0 mm 1 m/S 740 mmHg 68%
    01:00 +20°C° 0 mm 1 m/S 740 mmHg 70%
    02:00 +20°C° 0 mm 1 m/S 740 mmHg 71%
    03:00 +19°C° 0 mm 1 m/S 740 mmHg 73%
    04:00 +19°C° 0 mm 1 m/S 740 mmHg 74%
    05:00 +20°C° 0 mm 1 m/S 740 mmHg 72%
    06:00 +21°C° 0 mm 1 m/S 740 mmHg 69%
    07:00 +22°C° 0 mm 1 m/S 740 mmHg 67%
    08:00 +24°C° 0 mm 1 m/S 740 mmHg 61%
    09:00 +26°C° 0 mm 1 m/S 740 mmHg 56%
    10:00 +28°C° 0 mm 1 m/S 741 mmHg 50%
    11:00 +28°C° 0,3 mm 1 m/S 740 mmHg 49%
    12:00 +29°C° 0,3 mm 2 m/S 740 mmHg 48%
    13:00 +29°C° 0,3 mm 2 m/S 740 mmHg 46%
    14:00 +29°C° 0,2 mm 2 m/S 740 mmHg 48%
    15:00 +28°C° 0,2 mm 2 m/S 740 mmHg 50%
    16:00 +28°C° 0,2 mm 3 m/S 740 mmHg 53%
    17:00 +26°C° 0,7 mm 3 m/S 740 mmHg 61%
    18:00 +24°C° 0,7 mm 3 m/S 741 mmHg 69%
    19:00 +21°C° 0,7 mm 4 m/S 741 mmHg 78%
    20:00 +20°C° 0,6 mm 3 m/S 741 mmHg 82%
    21:00 +19°C° 0,6 mm 3 m/S 741 mmHg 87%
    22:00 +18°C° 0,6 mm 2 m/S 742 mmHg 91%
    23:00 +18°C° 0,3 mm 2 m/S 742 mmHg 92%

    18 August, Samstag

    Zeit Temperatur Niederschläge Wind Luftdruck Luftfeuchtigkeit
    00:00 +17°C° 0,3 mm 2 m/S 742 mmHg 92%
    01:00 +17°C° 0,3 mm 2 m/S 742 mmHg 93%
    02:00 +17°C° 0 mm 2 m/S 742 mmHg 93%
    03:00 +16°C° 0 mm 2 m/S 742 mmHg 92%
    04:00 +16°C° 0 mm 2 m/S 743 mmHg 92%
    05:00 +16°C° 0 mm 2 m/S 743 mmHg 88%
    06:00 +17°C° 0 mm 2 m/S 743 mmHg 85%
    07:00 +18°C° 0 mm 1 m/S 744 mmHg 82%
    08:00 +19°C° 0 mm 1 m/S 744 mmHg 75%
    09:00 +20°C° 0 mm 1 m/S 744 mmHg 69%
    10:00 +21°C° 0 mm 1 m/S 744 mmHg 62%
    11:00 +23°C° 0 mm 1 m/S 744 mmHg 58%
    12:00 +24°C° 0 mm 2 m/S 744 mmHg 53%
    13:00 +25°C° 0 mm 2 m/S 744 mmHg 48%
    14:00 +25°C° 0 mm 2 m/S 744 mmHg 47%
    15:00 +26°C° 0 mm 2 m/S 744 mmHg 45%
    16:00 +26°C° 0 mm 3 m/S 744 mmHg 43%
    17:00 +25°C° 0 mm 2 m/S 744 mmHg 48%
    18:00 +23°C° 0 mm 2 m/S 744 mmHg 52%
    19:00 +21°C° 0 mm 2 m/S 744 mmHg 57%
    20:00 +20°C° 0 mm 2 m/S 744 mmHg 59%
    21:00 +19°C° 0 mm 1 m/S 745 mmHg 61%
    22:00 +18°C° 0 mm 1 m/S 745 mmHg 63%
    23:00 +18°C° 0 mm 1 m/S 745 mmHg 65%

    19 August, Sonntag

    Zeit Temperatur Niederschläge Wind Luftdruck Luftfeuchtigkeit
    00:00 +16°C° 0 mm 1 m/S 745 mmHg 67%
    01:00 +16°C° 0 mm 1 m/S 746 mmHg 69%
    02:00 +16°C° 0 mm 1 m/S 746 mmHg 72%
    03:00 +15°C° 0 mm 1 m/S 746 mmHg 75%
    04:00 +15°C° 0 mm 1 m/S 746 mmHg 78%
    05:00 +16°C° 0 mm 1 m/S 746 mmHg 77%
    06:00 +18°C° 0 mm 1 m/S 746 mmHg 76%
    07:00 +18°C° 0 mm 1 m/S 747 mmHg 75%
    08:00 +20°C° 0 mm 1 m/S 747 mmHg 70%
    09:00 +22°C° 0 mm 1 m/S 747 mmHg 64%
    10:00 +23°C° 0 mm 1 m/S 747 mmHg 59%
    11:00 +24°C° 0 mm 1 m/S 747 mmHg 57%
    12:00 +24°C° 0 mm 2 m/S 747 mmHg 54%
    13:00 +25°C° 0 mm 2 m/S 746 mmHg 52%
    14:00 +25°C° 0 mm 2 m/S 746 mmHg 51%
    15:00 +26°C° 0 mm 2 m/S 746 mmHg 49%
    16:00 +26°C° 0 mm 2 m/S 746 mmHg 48%
    17:00 +25°C° 0 mm 1 m/S 746 mmHg 53%
    18:00 +24°C° 0 mm 1 m/S 745 mmHg 58%
    19:00 +23°C° 0 mm 1 m/S 745 mmHg 63%
    20:00 +22°C° 0 mm 1 m/S 745 mmHg 66%
    21:00 +20°C° 0 mm 1 m/S 746 mmHg 69%
    22:00 +19°C° 0 mm 1 m/S 746 mmHg 73%
    23:00 +19°C° 0 mm 1 m/S 746 mmHg 74%

    20 August, Montag

    Zeit Temperatur Niederschläge Wind Luftdruck Luftfeuchtigkeit
    00:00 +19°C° 0 mm 1 m/S 745 mmHg 75%
    01:00 +18°C° 0 mm 1 m/S 745 mmHg 77%
    02:00 +18°C° 0 mm 1 m/S 745 mmHg 78%
    03:00 +18°C° 0 mm 1 m/S 745 mmHg 79%
    04:00 +18°C° 0 mm 1 m/S 745 mmHg 80%
    05:00 +18°C° 0 mm 2 m/S 745 mmHg 77%
    06:00 +18°C° 0 mm 2 m/S 745 mmHg 74%
    07:00 +19°C° 0 mm 2 m/S 745 mmHg 72%
    08:00 +21°C° 0 mm 2 m/S 745 mmHg 66%
    09:00 +24°C° 0 mm 3 m/S 745 mmHg 60%
    10:00 +26°C° 0 mm 3 m/S 745 mmHg 54%
    11:00 +27°C° 0 mm 3 m/S 745 mmHg 51%
    12:00 +28°C° 0 mm 4 m/S 745 mmHg 48%
    13:00 +29°C° 0 mm 4 m/S 745 mmHg 45%
    14:00 +29°C° 0 mm 4 m/S 745 mmHg 47%
    15:00 +29°C° 0 mm 4 m/S 745 mmHg 48%
    16:00 +28°C° 0 mm 4 m/S 744 mmHg 49%
    17:00 +27°C° 0 mm 4 m/S 744 mmHg 56%
    18:00 +25°C° 0 mm 3 m/S 744 mmHg 63%
    19:00 +24°C° 0 mm 3 m/S 744 mmHg 70%
    20:00 +21°C° 0 mm 2 m/S 745 mmHg 75%
    21:00 +20°C° 0 mm 2 m/S 745 mmHg 81%
    22:00 +19°C° 0 mm 2 m/S 745 mmHg 86%
    23:00 +18°C° 0 mm 2 m/S 745 mmHg 88%
    Mehr zeigen